Change the Weather History Date:

Saturday, July 14, 2012

  Actual Average Record
Temperature  
Mean Temperature 81 °F 80 °F  
Max Temperature 89 °F 89 °F 107 °F (1936)
Min Temperature 72 °F 70 °F 53 °F (1975)
Degree Days  
Heating Degree Days 0 0  
Month to date heating degree days 0 0  
Since 1 June heating degree days 7 5  
Since 1 July heating degree days 0 0  
Cooling Degree Days 16 14  
Month to date cooling degree days 286 196  
Year to date cooling degree days 993 694  
Since 1 June cooling degree days 638 520  
Growing Degree Days 30 (Base 50)    
Moisture  
Dew Point 71 °F    
Average Humidity 71    
Maximum Humidity 87    
Minimum Humidity 55    
Precipitation  
Precipitation 1.13 in 0.13 in 2.20 in (1986)
Month to date precipitation 1.32 1.83  
Year to date precipitation 25.43 25.49  
Snow  
Snow 0.00 in 0.00 in - ()
Month to date snowfall 0.0 0.0  
Since 1 June snowfall 0.0 0.0  
Since 1 July snowfall 0.0 0.0  
Snow Depth 0.00 in    
Sea Level Pressure  
Sea Level Pressure 30.09 in    
Wind  
Wind Speed 6 mph (WSW)    
Max Wind Speed 20 mph    
Max Gust Speed 24 mph    
Visibility 8 miles    
Events Fog , Rain , Thunderstorm    
T = Trace of Precipitation, MM = Missing Value Source: NWS Daily Summary

Daily Weather History Graph

Daily Weather History Graph

Search for Another Location

Airport or City:

Trip Planner

Search our weather history database for the weather conditions in past years. The results will help you decide how hot, cold, wet, or windy it might be!

Date:

Astronomy

Jul. 14, 2012 Rise Set
Actual Time 6:31 AM EDT 9:05 PM EDT
Civil Twilight 6:00 AM EDT 9:36 PM EDT
Nautical Twilight 5:22 AM EDT 10:14 PM EDT
Astronomical Twilight 4:40 AM EDT 10:57 PM EDT
Moon 2:45 AM EDT (7/14) 5:29 PM EDT (7/14)
Length of Visible Light 15h 35m
Length of Day
14h 34m
Waning Crescent, 19% of the Moon is Illuminated
Jul 14
Waning Crescent
Jul 19
New
Jul 26
First Quarter
Aug 1
Full
Aug 9
Last Quarter

Hourly Weather History & Observations

Time (EDT) Temp. Heat Index Dew Point Humidity Pressure Visibility Wind Dir Wind Speed Gust Speed Precip Events Conditions
12:56 AM 77.0 °F - 70.0 °F 79% 30.06 in 10.0 mi South 4.6 mph - 0.00 in   Overcast
1:56 AM 75.9 °F - 71.1 °F 85% 30.06 in 10.0 mi SSE 5.8 mph - N/A   Mostly Cloudy
2:56 AM 75.0 °F - 71.1 °F 87% 30.05 in 10.0 mi SSE 5.8 mph - N/A   Mostly Cloudy
3:56 AM 75.0 °F - 70.0 °F 84% 30.05 in 10.0 mi SE 6.9 mph - N/A   Mostly Cloudy
4:56 AM 73.9 °F - 70.0 °F 87% 30.05 in 10.0 mi Variable 3.5 mph - N/A   Mostly Cloudy
5:56 AM 75.0 °F - 70.0 °F 84% 30.06 in 10.0 mi Calm Calm - N/A   Mostly Cloudy
6:56 AM 73.9 °F - 70.0 °F 87% 30.09 in 10.0 mi ESE 3.5 mph - N/A   Mostly Cloudy
7:56 AM 75.9 °F - 70.0 °F 82% 30.10 in 10.0 mi WSW 3.5 mph - N/A   Mostly Cloudy
8:56 AM 78.1 °F - 71.1 °F 79% 30.11 in 10.0 mi SSE 3.5 mph - N/A   Mostly Cloudy
9:56 AM 81.0 °F 84.4 °F 70.0 °F 69% 30.12 in 10.0 mi West 3.5 mph - N/A   Mostly Cloudy
10:56 AM 84.0 °F 88.4 °F 70.0 °F 63% 30.10 in 10.0 mi WNW 3.5 mph - N/A   Overcast
11:56 AM 88.0 °F 92.9 °F 70.0 °F 55% 30.09 in 10.0 mi Variable 4.6 mph - N/A   Mostly Cloudy
12:07 PM 87.8 °F 92.6 °F 69.8 °F 55% 30.11 in 10.0 mi SW 8.1 mph - N/A   Mostly Cloudy
12:42 PM 87.8 °F 92.6 °F 69.8 °F 55% 30.11 in 10.0 mi NNW 11.5 mph 18.4 mph N/A Thunderstorm Thunderstorm
12:56 PM 80.1 °F 82.7 °F 68.0 °F 67% 30.10 in 10.0 mi NNW 12.7 mph - N/A Thunderstorm Thunderstorm
12:59 PM 80.6 °F 83.9 °F 69.8 °F 70% 30.12 in 10.0 mi NNW 13.8 mph - N/A Thunderstorm Thunderstorm
1:08 PM 77.0 °F - 69.8 °F 78% 30.11 in 1.0 mi WNW 9.2 mph 18.4 mph 0.00 in Rain , Thunderstorm Heavy Thunderstorms and Rain
1:10 PM 75.2 °F - 71.6 °F 89% 30.11 in 0.8 mi WNW 8.1 mph 18.4 mph 0.13 in Rain , Thunderstorm Heavy Thunderstorms and Rain
1:18 PM 77.0 °F - 71.6 °F 83% 30.10 in 5.0 mi NNE 9.2 mph - 0.19 in Thunderstorm Unknown
1:32 PM 80.6 °F 85.4 °F 73.4 °F 79% 30.11 in 10.0 mi NNE 4.6 mph - 0.19 in   Overcast
1:56 PM 77.0 °F - 73.0 °F 88% 30.09 in 4.0 mi NW 15.0 mph - 0.21 in Rain , Thunderstorm Thunderstorms and Rain
2:06 PM 75.2 °F - 71.6 °F 89% 30.10 in 1.5 mi NW 15.0 mph 20.7 mph 0.05 in Rain , Thunderstorm Heavy Thunderstorms and Rain
2:16 PM 73.4 °F - 71.6 °F 94% 30.12 in 0.8 mi NW 17.3 mph - 0.25 in Rain Heavy Rain
2:26 PM 73.4 °F - 71.6 °F 94% 30.13 in 1.0 mi NNW 15.0 mph - 0.51 in Rain , Thunderstorm Heavy Thunderstorms and Rain
2:33 PM 73.4 °F - 69.8 °F 88% 30.12 in 3.0 mi NNW 15.0 mph - 0.55 in Rain , Thunderstorm Heavy Thunderstorms and Rain
2:47 PM 73.4 °F - 71.6 °F 94% 30.14 in 0.5 mi West 16.1 mph - 0.56 in Rain , Thunderstorm Light Thunderstorms and Rain
2:50 PM 73.4 °F - 71.6 °F 94% 30.15 in 0.5 mi West 13.8 mph - 0.72 in Rain , Thunderstorm Heavy Thunderstorms and Rain
2:56 PM 72.0 °F - 70.0 °F 93% 30.12 in 0.5 mi WNW 5.8 mph - 0.87 in Fog , Rain , Thunderstorm Heavy Thunderstorms and Rain
3:03 PM 71.6 °F - 69.8 °F 94% 30.13 in 1.8 mi WNW 5.8 mph - 0.05 in Rain , Thunderstorm Heavy Thunderstorms and Rain
3:06 PM 71.6 °F - 69.8 °F 94% 30.13 in 3.0 mi West 6.9 mph - 0.05 in Rain , Thunderstorm Heavy Thunderstorms and Rain
3:23 PM 73.4 °F - 71.6 °F 94% 30.13 in 8.0 mi WSW 6.9 mph - 0.05 in Rain Light Rain
3:56 PM 75.9 °F - 71.1 °F 85% 30.10 in 10.0 mi SSW 5.8 mph - 0.05 in   Overcast
4:56 PM 78.1 °F - 71.1 °F 79% 30.08 in 10.0 mi SSW 8.1 mph - 0.00 in   Overcast
5:56 PM 80.1 °F 83.2 °F 70.0 °F 71% 30.05 in 10.0 mi SSE 8.1 mph - N/A   Mostly Cloudy
6:56 PM 81.0 °F 84.4 °F 70.0 °F 69% 30.05 in 10.0 mi SSE 6.9 mph - N/A   Mostly Cloudy
7:56 PM 82.0 °F 85.9 °F 70.0 °F 67% 30.05 in 10.0 mi South 5.8 mph - N/A   Mostly Cloudy
8:56 PM 81.0 °F 84.4 °F 70.0 °F 69% 30.07 in 10.0 mi South 10.4 mph - N/A   Mostly Cloudy
9:35 PM 80.6 °F 83.9 °F 69.8 °F 70% 30.08 in 10.0 mi South 8.1 mph - N/A   Scattered Clouds
9:56 PM 79.0 °F - 70.0 °F 74% 30.08 in 10.0 mi South 9.2 mph - N/A   Scattered Clouds
10:56 PM 78.1 °F - 70.0 °F 76% 30.09 in 10.0 mi SSE 8.1 mph - N/A   Mostly Cloudy
11:56 PM 77.0 °F - 70.0 °F 79% 30.10 in 10.0 mi SSE 6.9 mph - N/A   Mostly Cloudy